Voltar ao catálogo

STARLINK-30800

AtivoComunicaçõesVLEO
NORAD 58206·PAYLOAD·🇺🇸 United States

Lançado Nov 3, 2023 de Cape Canaveral Space Force Station

Loading…

Próximas Passagens (próximas 24 horas)

TLE

AtualizadoSource: CelesTrak SupGP

Época: Sep 15, 2026, 01:50 UTC

1 58206C 23170A   26258.07687500 -.00001648  00000+0 -59702-4 0  2585
2 58206  43.0026 205.0521 0001345 258.3072 308.0063 15.27573520    11

Acompanhe STARLINK-30800 em tempo real com AllMySat

Download on the App Store